Location: Waco, TX
(31.5480°N, 97.1670°W)
Time: 13:48:37

ISS - Pass Details

Date: 22 March 2018
Orbit: 403 x 406 km, 51.6° (Epoch: 23 March)

Event Time Altitude Azimuth Distance (km) Brightness Sun altitude
Rises 04:55:58 0° 324° (NW) 2,323 - -32.7°
Reaches altitude 10° 04:58:12 10° 335° (NNW) 1,461 - -32.3°
Maximum altitude 05:01:11 31° 40° (NE) 727 - -31.7°
Drops below altitude 10° 05:04:08 10° 105° (ESE) 1,453 - -31.1°
Exits shadow 05:04:52 - 110° (ESE) 1,729 -0.1 -31.0°
Sets 05:06:21 0° 116° (ESE) 2,309 0.5 -30.7°
